Regional Weather Roundup
Issued by NWS Bismarck, ND

Home | Current Version | Previous Version | Text Only | Print | Product List | Glossary Off
Versions: 1 2 3 4 5 6 7 8 9 10 11 12 13 14 15 16 17 18 19 20 21 22 23 24 25 26 27 28 29 30 31 32 33 34 35 36 37 38 39 40 41 42 43 44 45 46 47 48 49 50

000
ASUS43 KBIS 241920
RWRBIS

NWR BROADCAST TEXT
NATIONAL WEATHER SERVICE BISMARCK ND
200 PM CDT SUN MAY 24 2015

NOTE: "FAIR" INDICATES FEW OR NO CLOUDS BELOW 12,000 FEET WITH NO
SIGNIFICANT WEATHER AND/OR OBSTRUCTIONS TO VISIBILITY.


CITY           SKY/WX    TMP DP  RH WIND       PRES   REMARKS
WILLISTON      SUNNY     75  40  28 E16G25    29.99F
MINOT          MOSUNNY   74  43  32 NE15G21   29.98F
MINOT AFB      MOSUNNY   75  44  32 E10G20    29.97F
BISMARCK       CLOUDY    67  49  52 E14       29.98F
DICKINSON      CLOUDY    63  50  62 E9        29.98F
GARRISON         N/A     69  49  48 E10       29.99F
HETTINGER ARPT LGT RAIN  59  50  72 E13       29.99F
JAMESTOWN      CLOUDY    69  49  48 E10G21    29.96F
BEACH          CLOUDY    63  50  63 E10G17    30.01S
CARRINGTON     FAIR      68  50  52 E12       29.99F
CROSBY         FAIR      75  37  25 E8G17     29.99F
HARVEY         MOCLDY    72  46  40 SE9       29.99F
HAZEN          MOCLDY    66  50  55 E8        29.99F
LINTON         MOCLDY    66  52  59 E17G24    29.95F
MANDAN         CLOUDY    66  50  55 E13       29.99F
OAKES            N/A     64  54  68 E17       29.95F
STANLEY        FAIR      72  41  33 E15G23    30.00F
TIOGA          FAIR      73  37  27 E14G22    30.02F
WATFORD CITY   MOCLDY    68  48  49 E8        29.98S
$$

CITY           SKY/WX    TMP DP  RH WIND       PRES   REMARKS
GRAND FORKS    CLOUDY    75  48  38 SE7       29.98F
GRAND FORKS AF CLOUDY    74  48  40 SE9       29.98F
DEVILS LAKE    PTSUNNY   72  46  40 SE12      29.98F
FARGO          CLOUDY    69  51  52 E15       29.97F
CANDO          FAIR      75  39  27 SE8G22    29.99F
CAVALIER       FAIR      77  39  25 E7        29.98F
GRAFTON        FAIR      75  48  38 SE10      29.99F
LANGDON        FAIR      77  41  27 E10G20    30.00S
ROLLA            N/A     73  34  23 NE7G21    30.00F
WALHALLA         N/A     75  43  31 E7        29.98F
$$

CITY           SKY/WX    TMP DP  RH WIND       PRES   REMARKS
ABERDEEN       CLOUDY    66  54  65 E10       29.92F
MOBRIDGE       CLOUDY    70  51  51 NE17      29.90F
BUFFALO          N/A     56  52  86 E16       29.91F
RAPID CITY     LGT RAIN  55  53  93 NE14      29.91F FOG
GLASGOW        MOSUNNY   74  39  28 SE13      29.98F
SIDNEY         PTSUNNY   66  48  52 NE8       29.99S
WOLF POINT     SUNNY     76  43  30 E13G21    29.98F
GLENDIVE       CLOUDY    64  48  55 SE9       30.00F
MILES CITY     CLOUDY    62  46  55 VRB6      29.99F
BAKER          CLOUDY    59  51  75 E15       30.01S
$$

CITY           SKY/WX    TMP DP  RH WIND       PRES   REMARKS
BILLINGS       CLOUDY    53  49  86 NE7       30.02F
GREAT FALLS    CLOUDY    58  43  57 NE8       30.06F
REGINA         PTSUNNY   77  37  24 N7G18     29.99F
ESTEVAN        MOSUNNY   77  36  22 NE7G17    29.99F
$$



USA.gov is the U.S. government's official web portal to all federal, state and local government web resources and services.